Station PILM4 - Passage Island, MI Image indicating link to RSS feed of recent meteorological observations for station PILM4


Conditions at PILM4 as of
(5:00 pm EDT)
2100 GMT on 07/20/2024:
     

Click on the graph icon in the table below to see a time series plot of the last five days of that observation.

5-day plot - Wind Direction Wind Direction (WDIR): SE ( 140 deg true )
5-day plot - Wind Speed Wind Speed (WSPD): 3 kts
5-day plot - Wind Gust Wind Gust (GST): 4 kts
5-day plot - Atmospheric Pressure Atmospheric Pressure (PRES):30.15 in
5-day plot - Pressure Tendency Pressure Tendency (PTDY):-0.02 in ( Falling )
5-day plot - Air Temperature Air Temperature (ATMP): 61.9 °F
5-day plot - Wind Speed at 10 Meters Wind Speed at 10 meters (WSPD10M): 4 kts
5-day plot - Wind Speed at 20 Meters Wind Speed at 20 meters (WSPD20M): 4 kts
5-day plot -  Wind Speed, Wind Gust and Atmospheric Pressure Combined plot of Wind Speed, Gust, and Air Pressure
Continuous Winds
TIME
(EDT)
5-day plot - Wind Direction WDIR 5-day plot - Wind Speed WSPD
5:00 pmSE ( 145 deg ) 3 kts
4:50 pmSE ( 137 deg ) 4 kts
4:40 pmESE ( 111 deg ) 5 kts
4:30 pmESE ( 106 deg ) 6 kts
4:20 pmE ( 100 deg ) 6 kts
4:10 pmESE ( 106 deg ) 6 kts
 
Peak gust during the measurement hour
TIME
(EDT)
5-day plot - Gust Direction GDR 5-day plot - Gust Speed GST
4:25 pmESE ( 110 deg ) 8 kts
Previous observations
TIME
(EDT)
5-day plot - Wind Direction
WDIR
 
5-day plot - Wind Speed
WSPD
kts
5-day plot - Wind Gust
GST
kts
5-day plot - Wave Height
WVHT
ft
5-day plot - Dominant Wave Period
DPD
sec
5-day plot - Average Wave Period
APD
sec
5-day plot - Mean Wave Direction
MWD
 
5-day plot - Atmospheric Pressure
PRES
in
5-day plot - Pressure Tendency
PTDY
in
5-day plot - Air Temperature
ATMP
°F
5-day plot - Water Temperature
WTMP
°F
5-day plot - Dew Point
DEWP
°F
5-day plot - Salinity
SAL
psu
5-day plot - Visibility
VIS
nmi
5-day plot - Tide (above MLLW)
TIDE
ft
2024-07-20 04:00 pm E 7 8----30.15+0.00 60.6-----
2024-07-20 03:00 pm E 6 6----30.16+0.03 59.7-----
2024-07-20 02:00 pm E 7 8----30.16+0.05 59.4-----
2024-07-20 01:00 pm E 9 10----30.15+0.06 59.2-----
2024-07-20 12:00 pmENE 14 15----30.14+0.06 61.2-----
2024-07-20 11:00 amENE 12 14----30.12+0.06 61.5-----
2024-07-20 10:00 amENE 15 17----30.09+0.06 62.6-----
2024-07-20 09:00 am NE 9 11----30.08+0.07 62.8-----
2024-07-20 08:00 am N 7 11----30.05+0.06 61.3-----
2024-07-20 07:00 am NW 8 8----30.03+0.04 61.2-----
2024-07-20 06:00 amWNW 8 9----30.01+0.02 61.0-----
2024-07-20 05:00 am W 16 16----29.99+0.00 63.5-----
2024-07-20 04:00 am W 17 17----29.99+0.00 63.1-----
2024-07-20 03:00 am W 17 17----29.99-0.01 64.8-----
2024-07-20 02:00 am W 17 18----30.00-0.01 65.5-----
2024-07-20 01:00 am W 19 19----29.99-0.01 67.1-----
2024-07-20 12:00 am W 17 18----30.01+0.00 69.6-----
2024-07-19 11:00 pm W 19 20----30.01+0.00 70.0-----
2024-07-19 10:00 pm W 19 20----30.00-0.01 70.7-----
2024-07-19 09:00 pm SW 10 11----30.00-0.02 66.4-----
2024-07-19 08:00 pm SW 15 22----30.01-0.02 67.5-----
2024-07-19 07:00 pm W 23 24----30.01-0.03 70.0-----
2024-07-19 06:00 pmWSW 11 12----30.02-0.03 66.6-----